Weather History for Sioux City, IA

Change the Weather History Date:

Sunday, February 23, 2014

  Actual Average Record
Temperature  
Mean Temperature 21 °F 28 °F  
Max Temperature 32 °F 37 °F 68 °F (2002)
Min Temperature 10 °F 18 °F -15 °F (1993)
Degree Days  
Heating Degree Days 44 37  
Month to date heating degree days 1028 936  
Since 1 July heating degree days 5343 5112  
Cooling Degree Days 0 0  
Month to date cooling degree days 0 0  
Year to date cooling degree days 0 0  
Moisture  
Dew Point 8 °F    
Average Humidity 56    
Maximum Humidity 76    
Minimum Humidity 36    
Precipitation  
Precipitation 0.00 in 0.03 in 0.58 in (2012)
Month to date precipitation 0.49 0.52  
Year to date precipitation 0.68 1.14  
Snow  
Snow 0.00 in 0.30 in 5.50 in (1924)
Month to date snowfall 6.1 5.5  
Since 1 July snowfall 11.4 25.4  
Snow Depth 0.00 in    
Sea Level Pressure  
Sea Level Pressure 30.38 in    
Wind  
Wind Speed 9 mph (NW)    
Max Wind Speed 18 mph    
Max Gust Speed 25 mph    
Visibility 10 miles    
Events      
T = Trace of Precipitation, MM = Missing Value Source: NWS Daily Summary

Daily Weather History Graph

Daily Weather History Graph

Search for Another Location

Airport:

Trip Planner

Search our weather history database for the weather conditions in past years. The results will help you decide how hot, cold, wet, or windy it might be!

Date:

Astronomy

Feb. 23, 2014 Rise Set
Actual Time 7:10 AM CST 6:08 PM CST
Civil Twilight 6:41 AM CST 6:36 PM CST
Nautical Twilight 6:09 AM CST 7:09 PM CST
Astronomical Twilight 5:36 AM CST 7:41 PM CST
Moon 2:13 AM CST (2/23) 12:07 PM CST (2/23)
Length of Visible Light 11h 54m
Length of Day
10h 57m
Last Quarter, 38% of the Moon is Illuminated
Feb 23
Last Quarter
Mar 1
New
Mar 8
First Quarter
Mar 16
Full
Mar 23
Last Quarter

Hourly Weather History & Observations

Time (CST) Temp. Windchill Dew Point Humidity Pressure Visibility Wind Dir Wind Speed Gust Speed Precip Events Conditions
12:52 AM 21.9 °F 9.8 °F 7.0 °F 53% 30.28 in 10.0 mi North 12.7 mph - N/A   Scattered Clouds
1:52 AM 19.9 °F 9.3 °F 7.0 °F 57% 30.30 in 10.0 mi North 9.2 mph - N/A   Partly Cloudy
2:52 AM 18.0 °F 8.7 °F 7.0 °F 62% 30.30 in 10.0 mi NNW 6.9 mph - N/A   Scattered Clouds
3:52 AM 16.0 °F 6.3 °F 5.0 °F 62% 30.30 in 10.0 mi NNW 6.9 mph - N/A   Clear
4:52 AM 12.0 °F 4.1 °F 3.9 °F 70% 30.33 in 10.0 mi WNW 4.6 mph - N/A   Clear
5:52 AM 12.0 °F 2.7 °F 6.1 °F 77% 30.36 in 10.0 mi WNW 5.8 mph - N/A   Mostly Cloudy
6:52 AM 12.9 °F 3.8 °F 6.1 °F 74% 30.37 in 10.0 mi NW 5.8 mph - N/A   Clear
7:52 AM 15.1 °F 5.2 °F 7.0 °F 70% 30.38 in 10.0 mi North 6.9 mph - N/A   Scattered Clouds
8:52 AM 18.0 °F 6.9 °F 7.0 °F 62% 30.40 in 10.0 mi NNW 9.2 mph - N/A   Partly Cloudy
9:52 AM 21.0 °F 8.6 °F 6.1 °F 53% 30.41 in 10.0 mi NNW 12.7 mph - N/A   Clear
10:52 AM 23.0 °F 11.7 °F 5.0 °F 46% 30.42 in 10.0 mi NW 11.5 mph - N/A   Clear
11:52 AM 25.0 °F 13.1 °F 7.0 °F 46% 30.41 in 10.0 mi NNW 13.8 mph 19.6 mph N/A   Clear
12:52 PM 30.0 °F 19.1 °F 10.0 °F 43% 30.40 in 10.0 mi NNW 15.0 mph 20.7 mph N/A   Clear
1:52 PM 30.0 °F 20.0 °F 9.0 °F 41% 30.38 in 10.0 mi NNW 12.7 mph - N/A   Clear
2:52 PM 32.0 °F 22.1 °F 9.0 °F 38% 30.37 in 10.0 mi NW 13.8 mph - N/A   Clear
3:52 PM 30.9 °F 20.2 °F 7.0 °F 37% 30.37 in 10.0 mi NW 15.0 mph - N/A   Clear
4:52 PM 28.9 °F 17.7 °F 9.0 °F 43% 30.38 in 10.0 mi NNW 15.0 mph - N/A   Overcast
5:52 PM 27.0 °F 17.3 °F 8.1 °F 45% 30.39 in 10.0 mi NW 10.4 mph - N/A   Scattered Clouds
6:52 PM 25.0 °F 17.1 °F 9.0 °F 51% 30.40 in 10.0 mi NW 6.9 mph - N/A   Partly Cloudy
7:52 PM 21.0 °F 16.2 °F 8.1 °F 57% 30.40 in 10.0 mi WNW 3.5 mph - N/A   Scattered Clouds
8:52 PM 19.0 °F 11.1 °F 9.0 °F 65% 30.41 in 10.0 mi West 5.8 mph - N/A   Scattered Clouds
9:52 PM 19.0 °F 11.1 °F 9.0 °F 65% 30.42 in 10.0 mi WNW 5.8 mph - N/A   Clear
10:52 PM 19.9 °F 11.1 °F 10.0 °F 65% 30.42 in 10.0 mi NW 6.9 mph - N/A   Partly Cloudy
11:52 PM 19.0 °F 11.1 °F 10.0 °F 68% 30.42 in 10.0 mi NW 5.8 mph - N/A   Clear